[[{"header":{"parameterUnit":"m.s-1","parameterCategory":1,"la1":30.2991,"la2":30.254,"lo1":-89.0895,"lo2":-89.0444,"dy":0.0017,"dx":0.0017,"nx":28,"ny":28,"refTime":"2025-09-13T21:00:00:Z","depth":0,"parameterNumber":2,"parameterNumberName":"U-component_of_WINDS"},"data":[0,0,0,0,0,0,0,0,0,0,0,0,0,0,0,0,0,0,0,0,0,0,0,0,0,0,0,0,0,0,0,0,0,0,0,0,0,0,0,0,0,0,0,0,0,0,0,0,0,0,0,0,0,0,0,0,0,0,-0.7344,-0.7345,0,-0.7443,-0.7444,-0.7445,-0.7488,-0.7488,-0.7488,-0.7488,-0.7589,-0.7592,-0.7595,0,0,0,0,0,0,0,0,0,0,0,0,0,-0.7192,-0.7195,-0.7343,-0.7345,-0.7346,-0.7442,-0.7444,-0.7445,-0.7488,-0.7488,-0.7488,-0.7488,-0.7588,-0.7592,-0.7595,0,0,0,0,0,0,0,0,0,0,0,0,0,-0.7271,-0.7195,-0.7343,-0.7379,-0.7383,-0.7442,-0.7444,-0.7446,-0.7488,-0.7488,-0.7488,-0.7488,-0.7587,-0.7591,-0.7596,-0.7626,0,0,-0.7609,-0.761,0,0,0,0,0,0,0,0,-0.7267,-0.7277,-0.7373,-0.7377,-0.7382,-0.7453,-0.7428,-0.7506,-0.7488,-0.7448,-0.7488,-0.7488,-0.7544,-0.7552,-0.7571,-0.7631,-0.7635,-0.7609,-0.7612,-0.7613,-0.7615,0,0,0,0,0,0,0,-0.7261,-0.7273,-0.7383,-0.7374,-0.7379,-0.739,-0.7401,-0.7443,-0.7496,-0.7452,-0.7455,-0.7466,-0.7547,-0.7567,-0.7574,-0.7637,-0.7609,-0.7613,-0.7615,-0.7617,-0.7728,-0.7728,0,0,0,0,0,0,-0.725,-0.7268,-0.738,-0.7386,-0.7322,-0.7393,-0.7406,-0.743,-0.7496,-0.7506,-0.7467,-0.7468,-0.756,-0.7569,-0.7577,-0.7618,-0.7613,-0.7617,-0.762,-0.7727,-0.7728,-0.7728,0,0,0,0,0,0,-0.7246,-0.7259,-0.7376,-0.7328,-0.7343,-0.7396,-0.7423,-0.7432,-0.7453,-0.7507,-0.7517,-0.7477,-0.756,-0.7571,-0.7614,-0.7622,-0.7619,-0.7623,-0.7727,-0.7728,-0.7728,-0.7699,0,0,0,0,0,0,-0.7242,-0.7258,-0.727,-0.7328,-0.7346,-0.741,-0.7424,-0.7434,-0.746,-0.7463,-0.752,-0.7529,-0.7561,-0.7607,-0.7618,-0.7628,-0.7627,-0.7727,-0.7727,-0.7728,-0.77,-0.7699,-0.7698,0,0,0,0,0,-0.7236,-0.7258,-0.727,-0.7283,-0.7362,-0.7411,-0.7421,-0.7457,-0.746,-0.7473,-0.7508,-0.7527,-0.762,-0.7611,-0.7624,-0.7635,-0.7726,-0.7727,-0.7728,-0.77,-0.7699,-0.7698,0,0,0,0,0,0,-0.7199,-0.7266,-0.728,-0.7321,-0.736,-0.7418,-0.7435,-0.7454,-0.7493,-0.7494,-0.7537,-0.7549,-0.7588,-0.7616,-0.7606,-0.7669,-0.7675,-0.7678,-0.7649,-0.7648,-0.7648,-0.764,-0.763,0,0,0,0,0,-0.7196,-0.723,-0.7286,-0.7317,-0.7335,-0.7382,-0.7404,-0.7428,-0.747,-0.7487,-0.7525,-0.7565,-0.7603,-0.7627,-0.7665,-0.7704,-0.7717,-0.7718,-0.7717,-0.7716,-0.7719,-0.7742,-0.7743,-0.7731,-0.7731,-0.7731,0,0,-0.7189,-0.723,-0.7248,-0.731,-0.7343,-0.7377,-0.7395,-0.7431,-0.7457,-0.7492,-0.7535,-0.7564,-0.7612,-0.7653,-0.7672,-0.7677,-0.7725,-0.7717,-0.7716,-0.7719,-0.7743,-0.7744,-0.7744,-0.7732,-0.7732,-0.7732,0,0,-0.7194,-0.7228,-0.7258,-0.729,-0.734,-0.7371,-0.7378,-0.7433,-0.7454,-0.7497,-0.7525,-0.7557,-0.7621,-0.7654,-0.7679,-0.7698,-0.7717,-0.7709,-0.7704,-0.7726,-0.7727,-0.7728,-0.7735,-0.7737,-0.7711,-0.7711,-0.7711,0,-0.7179,-0.7232,-0.727,-0.7304,-0.7331,-0.7365,-0.7395,-0.7425,-0.7485,-0.7502,-0.7506,-0.7589,-0.7623,-0.7672,-0.7677,-0.7696,-0.7705,-0.7702,-0.7724,-0.7725,-0.7727,-0.7734,-0.7736,-0.771,-0.771,-0.771,-0.771,0,-0.7212,-0.7248,-0.7266,-0.7323,-0.7351,-0.7383,-0.7426,-0.7451,-0.7473,-0.7503,-0.7547,-0.759,-0.7637,-0.7651,-0.7672,-0.7703,-0.7704,-0.7715,-0.7722,-0.7726,-0.7733,-0.7736,-0.7708,-0.7708,-0.7709,-0.7709,0,0,-0.7197,-0.7274,-0.728,-0.7306,-0.7364,-0.7393,-0.7426,-0.7473,-0.7493,-0.7533,-0.7563,-0.7617,-0.7628,-0.7656,-0.7682,-0.7701,-0.7714,-0.7711,-0.7712,-0.771,-0.7751,-0.7742,-0.7744,-0.7727,-0.7727,-0.7728,-0.7747,0,-0.721,-0.7272,-0.7307,-0.7355,-0.7389,-0.7422,-0.7451,-0.749,-0.7519,-0.7553,-0.7585,-0.7623,-0.7634,-0.7652,-0.7672,-0.7708,-0.7722,-0.7707,-0.7755,-0.7756,-0.7742,-0.7748,-0.7739,-0.7755,-0.775,-0.775,-0.7751,0,-0.7234,-0.7273,-0.7324,-0.7378,-0.7394,-0.742,-0.7465,-0.7497,-0.7541,-0.7562,-0.7593,-0.7619,-0.7656,-0.766,-0.7712,-0.7701,-0.7723,-0.7743,-0.7745,-0.7751,-0.7754,-0.7755,-0.7761,-0.7763,-0.7756,-0.7755,-0.7755,0,-0.7218,-0.7284,-0.7323,-0.7344,-0.7408,-0.7426,-0.7453,-0.7497,-0.7523,-0.7563,-0.7581,-0.7624,-0.7648,-0.7682,-0.7719,-0.7718,-0.7767,-0.7774,-0.7785,-0.7784,-0.7794,-0.7793,-0.7804,-0.7808,-0.7808,-0.7808,-0.7808,0,-0.7229,-0.7259,-0.7316,-0.734,-0.7375,-0.7415,-0.7449,-0.7479,-0.7518,-0.7549,-0.758,-0.7608,-0.7655,-0.7689,-0.7718,-0.7757,-0.7768,-0.7785,-0.7793,-0.7783,-0.778,-0.7798,-0.7797,-0.7808,-0.7808,-0.7808,-0.7808,0,-0.7217,-0.7257,-0.7302,-0.7359,-0.7374,-0.7397,-0.7446,-0.747,-0.7501,-0.754,-0.7551,-0.76,-0.7642,-0.7682,-0.7738,-0.7758,-0.7796,-0.7806,-0.7781,-0.7785,-0.7794,-0.7793,-0.7817,-0.7822,-0.7822,-0.7822,-0.7822,0,-0.7222,-0.7246,-0.7305,-0.7328,-0.7355,-0.7391,-0.7418,-0.7459,-0.7485,-0.7538,-0.7556,-0.76,-0.7638,-0.7703,-0.7744,-0.7787,-0.7798,-0.7803,-0.7804,-0.7794,-0.7798,-0.7796,-0.7799,-0.7802,-0.7802,-0.7802,-0.7802,0,-0.7226,-0.7245,-0.7282,-0.7326,-0.7357,-0.7394,-0.7432,-0.7448,-0.7497,-0.7525,-0.7568,-0.7597,-0.7654,-0.7698,-0.7746,-0.7774,-0.7796,-0.7801,-0.7806,-0.7796,-0.7781,-0.7789,-0.7779,-0.78,-0.78,-0.7801,-0.7801,-0.7801,-0.7223,-0.7246,-0.7291,-0.7332,-0.7365,-0.74,-0.7426,-0.746,-0.7497,-0.7547,-0.7568,-0.7612,-0.7657,-0.7723,-0.7751,-0.7786,-0.7792,-0.7798,-0.78,-0.7802,-0.7799,-0.7775,-0.7795,-0.7795,-0.7795,-0.7795,-0.7795,0,-0.7229,-0.726,-0.7297,-0.7349,-0.7381,-0.7399,-0.7442,-0.7467,-0.7505,-0.7545,-0.7581,-0.7631,-0.7673,-0.7717,-0.7762,-0.7782,-0.7793,-0.7792,-0.7791,-0.7798,-0.7792,-0.7783,-0.7783,-0.7783,-0.7783,-0.7783,-0.7783,-0.7783,-0.7236,-0.7276,-0.73,-0.7356,-0.7387,-0.743,-0.7453,-0.7486,-0.7518,-0.7572,-0.7607,-0.7635,-0.7677,-0.7725,-0.7765,-0.7777,-0.7792,-0.7789,-0.7803,-0.7797,-0.7798,-0.7799,-0.7791,-0.7792,-0.7792,-0.7807,-0.7807,-0.7807]},{"header":{"parameterUnit":"m.s-1","parameterCategory":1,"la1":30.2991,"la2":30.254,"lo1":-89.0895,"lo2":-89.0444,"dy":0.0017,"dx":0.0017,"nx":28,"ny":28,"refTime":"2025-09-13T21:00:00:Z","depth":0,"parameterNumber":3,"parameterNumberName":"V-component_of_WINDS"},"data":[0,0,0,0,0,0,0,0,0,0,0,0,0,0,0,0,0,0,0,0,0,0,0,0,0,0,0,0,0,0,0,0,0,0,0,0,0,0,0,0,0,0,0,0,0,0,0,0,0,0,0,0,0,0,0,0,0,0,-1.7908,-1.7909,0,-1.7925,-1.7925,-1.7926,-1.7909,-1.7908,-1.7907,-1.7907,-1.7922,-1.7923,-1.7924,0,0,0,0,0,0,0,0,0,0,0,0,0,-1.7859,-1.786,-1.7908,-1.7909,-1.7909,-1.7925,-1.7925,-1.7926,-1.7909,-1.7908,-1.7907,-1.7906,-1.7922,-1.7923,-1.7924,0,0,0,0,0,0,0,0,0,0,0,0,0,-1.7879,-1.7861,-1.7908,-1.7902,-1.7902,-1.7925,-1.7925,-1.7926,-1.7909,-1.7908,-1.7907,-1.7906,-1.7921,-1.7923,-1.7924,-1.7954,0,0,-1.7929,-1.793,0,0,0,0,0,0,0,0,-1.7878,-1.7881,-1.7903,-1.7903,-1.7902,-1.7914,-1.7914,-1.7935,-1.7909,-1.7906,-1.7907,-1.7906,-1.792,-1.7922,-1.7927,-1.7954,-1.7955,-1.7929,-1.793,-1.7931,-1.7931,0,0,0,0,0,0,0,-1.7877,-1.788,-1.7915,-1.7903,-1.7903,-1.7898,-1.79,-1.7918,-1.7918,-1.7906,-1.7905,-1.7908,-1.792,-1.7925,-1.7927,-1.7955,-1.7929,-1.7931,-1.7932,-1.7932,-1.8007,-1.8008,0,0,0,0,0,0,-1.7876,-1.7879,-1.7914,-1.7915,-1.7888,-1.79,-1.7902,-1.7911,-1.7918,-1.7918,-1.7908,-1.7907,-1.7923,-1.7925,-1.7928,-1.7962,-1.7931,-1.7932,-1.7933,-1.8006,-1.8007,-1.8008,0,0,0,0,0,0,-1.7875,-1.7879,-1.7914,-1.7897,-1.7901,-1.7902,-1.7912,-1.7912,-1.7918,-1.792,-1.792,-1.7914,-1.7923,-1.7925,-1.7947,-1.7962,-1.7933,-1.7934,-1.8005,-1.8006,-1.8008,-1.803,0,0,0,0,0,0,-1.7874,-1.7879,-1.7891,-1.7897,-1.7902,-1.7934,-1.7913,-1.7913,-1.7921,-1.7919,-1.7925,-1.7925,-1.7922,-1.7945,-1.7949,-1.7964,-1.7936,-1.8003,-1.8005,-1.8007,-1.8028,-1.8033,-1.8036,0,0,0,0,0,-1.7872,-1.7896,-1.7891,-1.7896,-1.7917,-1.7935,-1.7937,-1.7933,-1.7922,-1.7933,-1.7934,-1.7925,-1.796,-1.7947,-1.7952,-1.7967,-1.8002,-1.8005,-1.8007,-1.8027,-1.8032,-1.8036,0,0,0,0,0,0,-1.7891,-1.7897,-1.7892,-1.7919,-1.7927,-1.7932,-1.7946,-1.7939,-1.795,-1.7947,-1.7942,-1.7943,-1.7966,-1.7969,-1.7955,-1.7995,-1.7979,-1.7982,-1.7993,-1.7998,-1.8001,-1.8,-1.7937,0,0,0,0,0,-1.7898,-1.7913,-1.7918,-1.7941,-1.7945,-1.7945,-1.7953,-1.7949,-1.7957,-1.796,-1.7962,-1.7969,-1.7982,-1.799,-1.8002,-1.8029,-1.803,-1.8042,-1.8046,-1.8049,-1.8051,-1.8065,-1.807,-1.8016,-1.8016,-1.8016,0,0,-1.7913,-1.7919,-1.7928,-1.7945,-1.795,-1.7965,-1.7948,-1.7964,-1.7975,-1.7962,-1.7982,-1.7985,-1.7992,-1.8017,-1.8028,-1.802,-1.8067,-1.8052,-1.8054,-1.8055,-1.8068,-1.8073,-1.8078,-1.8018,-1.8017,-1.8017,0,0,-1.7949,-1.7955,-1.7974,-1.798,-1.7989,-1.7989,-1.7993,-1.8,-1.8001,-1.8022,-1.8012,-1.8025,-1.8047,-1.8052,-1.8057,-1.8095,-1.8086,-1.8099,-1.8119,-1.8133,-1.8137,-1.8141,-1.8153,-1.8157,-1.8101,-1.8102,-1.8102,0,-1.7966,-1.7989,-1.7985,-1.8002,-1.801,-1.7999,-1.8019,-1.8025,-1.8036,-1.8041,-1.8032,-1.8059,-1.8063,-1.8089,-1.8098,-1.8103,-1.8108,-1.8097,-1.8137,-1.814,-1.8144,-1.8155,-1.816,-1.8103,-1.8103,-1.8103,-1.8103,0,-1.8009,-1.8025,-1.804,-1.8052,-1.8061,-1.8079,-1.8078,-1.8087,-1.8083,-1.8084,-1.8105,-1.811,-1.8122,-1.8128,-1.8124,-1.8152,-1.8147,-1.8138,-1.8121,-1.815,-1.8161,-1.8166,-1.8105,-1.8104,-1.8104,-1.8104,0,0,-1.8056,-1.8066,-1.8072,-1.8077,-1.8086,-1.8097,-1.8115,-1.8127,-1.8135,-1.8144,-1.8158,-1.8176,-1.8168,-1.8174,-1.8171,-1.8183,-1.8211,-1.8171,-1.8172,-1.8178,-1.8242,-1.8248,-1.8253,-1.8206,-1.8206,-1.8207,-1.8241,0,-1.8091,-1.8122,-1.8119,-1.8148,-1.8162,-1.8153,-1.8168,-1.8174,-1.8175,-1.8187,-1.8188,-1.8201,-1.8189,-1.8192,-1.8204,-1.8205,-1.8223,-1.8203,-1.8217,-1.8218,-1.8215,-1.8259,-1.8266,-1.8297,-1.8245,-1.8246,-1.8246,0,-1.8135,-1.8145,-1.8176,-1.8182,-1.8188,-1.8202,-1.8213,-1.8224,-1.8231,-1.8231,-1.8238,-1.8233,-1.825,-1.8234,-1.8256,-1.8242,-1.8248,-1.825,-1.8251,-1.8251,-1.8233,-1.826,-1.8307,-1.8312,-1.8253,-1.8252,-1.8252,0,-1.8165,-1.8187,-1.8208,-1.8212,-1.8221,-1.823,-1.8234,-1.824,-1.8248,-1.8257,-1.8262,-1.8273,-1.8279,-1.8287,-1.8285,-1.8273,-1.8308,-1.8292,-1.8307,-1.8307,-1.8314,-1.8313,-1.8362,-1.832,-1.832,-1.832,-1.8319,0,-1.8203,-1.8222,-1.8221,-1.8234,-1.8254,-1.8251,-1.8271,-1.8274,-1.8279,-1.8292,-1.8284,-1.8296,-1.8292,-1.8304,-1.8302,-1.832,-1.8323,-1.8323,-1.8322,-1.8323,-1.8323,-1.8326,-1.8324,-1.8321,-1.832,-1.832,-1.832,0,-1.8239,-1.824,-1.8262,-1.8268,-1.827,-1.8285,-1.8289,-1.8301,-1.8302,-1.8318,-1.8321,-1.8322,-1.8335,-1.8333,-1.8348,-1.8346,-1.8369,-1.8366,-1.8367,-1.8366,-1.8381,-1.8379,-1.8433,-1.8439,-1.8393,-1.8394,-1.8394,0,-1.8263,-1.8278,-1.8285,-1.8293,-1.8298,-1.8311,-1.8319,-1.8316,-1.8324,-1.8334,-1.8344,-1.8356,-1.8366,-1.8387,-1.8389,-1.8399,-1.8396,-1.8414,-1.8397,-1.8398,-1.8395,-1.8394,-1.8395,-1.8417,-1.8417,-1.8418,-1.8418,0,-1.8305,-1.8305,-1.8317,-1.8328,-1.8338,-1.8347,-1.8355,-1.8362,-1.836,-1.8369,-1.8383,-1.839,-1.8405,-1.8417,-1.8428,-1.8431,-1.8424,-1.8424,-1.8427,-1.8428,-1.8428,-1.8427,-1.8374,-1.8422,-1.8422,-1.8421,-1.8421,-1.8421,-1.8336,-1.8348,-1.8355,-1.8368,-1.8374,-1.8382,-1.8393,-1.8395,-1.8406,-1.8418,-1.8416,-1.8431,-1.8437,-1.8451,-1.8455,-1.8466,-1.8459,-1.8465,-1.8467,-1.8468,-1.8469,-1.8427,-1.8468,-1.8468,-1.8468,-1.8468,-1.8468,0,-1.8376,-1.8381,-1.8393,-1.8405,-1.8415,-1.8408,-1.8417,-1.8426,-1.8439,-1.8446,-1.8456,-1.8471,-1.8483,-1.8485,-1.8496,-1.8504,-1.8501,-1.8507,-1.8506,-1.8507,-1.8475,-1.847,-1.8509,-1.8509,-1.8509,-1.8509,-1.8509,-1.8509,-1.8399,-1.8418,-1.8419,-1.8441,-1.8445,-1.846,-1.8465,-1.8472,-1.8478,-1.8495,-1.8505,-1.8507,-1.8511,-1.8523,-1.8533,-1.8533,-1.8537,-1.8544,-1.8543,-1.8513,-1.8509,-1.8505,-1.85,-1.8545,-1.8545,-1.8574,-1.8574,-1.8574]}]]